Dewpoint
62 57 57 54 52 53 50 45 31 33 29 25 18 15 16 22 27 20 16 20 17 19 23 29 30 32 30 29 31 31 35 32 41 32 36 47 47 46 47 49 49 51 51 51 54 57 59 61 61 62 62 63 64 64 64 64 64 64 65 65 65 66 67 67 68 68 68 69 70 70 70 69 69 69 70 70 70 70 70 70 70 70 70 70 70 70 70 70 70 70 70 70 70 70 70 70 70
54 54 53 52 52 51 44 42 34 29 27 20 17 14 20 23 19 16 15 18 20 23 30 29 30 32 35 34 31 32 30 38 40 41 45 45 44 45 45 47 48 49 51 52 53 56 58 59 61 61 62 62 63 63 63 63 63 63 64 64 65 65 65 66 66 66 67 67 68 69 69 68 68 68 68 68 68 68 69 69 69 70 70 70 70 70 70 69 69 70 70 70 70 70 70 70 70
53 51 51 51 49 48 44 39 32 28 24 17 19 17 21 21 17 16 16 16 31 30 29 30 32 33 33 32 27 26 27 38 38 41 42 43 41 41 44 47 47 49 51 51 53 56 57 58 60 61 61 62 62 62 61 61 61 62 62 63 64 64 64 64 64 65 65 65 66 67 66 66 66 66 66 66 66 67 67 67 68 68 68 69 70 70 70 70 70 70 70 70 71 70 70 70 70
58 55 53 50 48 43 41 36 30 22 23 15 11 23 18 18 16 16 30 31 32 29 29 31 29 32 32 31 27 31 30 37 39 41 41 40 40 42 42 44 45 45 49 51 52 55 56 58 59 60 61 61 61 60 60 60 60 61 61 61 62 62 62 62 62 62 63 63 64 64 64 64 64 63 63 64 64 65 65 66 66 66 66 67 68 68 69 69 69 69 70 70 70 69 69 69 69
57 53 50 49 49 40 38 36 31 26 15 16 14 18 17 19 16 25 30 32 30 29 28 28 27 31 31 31 32 26 37 41 39 40 42 43 39 38 41 42 40 43 45 47 50 54 55 57 58 59 59 60 60 60 59 59 59 59 59 60 60 60 60 60 60 61 61 62 62 62 62 62 62 61 61 61 62 63 64 64 64 64 64 65 66 66 67 67 67 67 68 68 69 68 68 68 69
53 48 50 48 45 40 36 26 22 16 15 16 11 17 15 17 17 25 30 30 30 29 29 29 26 29 27 29 32 29 40 35 41 40 44 43 40 39 37 39 34 38 43 47 51 54 55 56 57 58 58 58 59 58 58 58 57 58 58 58 59 59 59 59 59 59 59 60 60 60 60 60 59 59 59 59 60 61 61 62 62 62 62 62 63 64 64 65 66 65 65 66 67 67 67 67 68
48 43 42 45 41 36 30 25 21 18 21 16 16 13 15 18 20 28 29 29 30 29 29 28 28 28 24 31 32 36 40 42 39 43 45 44 39 35 35 29 36 37 41 45 49 52 55 56 56 56 57 58 58 57 57 56 56 57 57 58 58 58 57 57 57 58 58 58 58 58 58 58 58 57 57 57 57 59 59 60 60 60 60 60 61 61 62 63 63 63 63 63 63 63 64 64 65
50 46 40 33 32 29 25 19 18 19 22 20 20 17 17 19 24 24 27 23 26 26 28 28 28 27 26 30 24 38 39 42 46 45 42 37 37 34 31 24 30 32 38 45 48 50 54 55 55 56 56 56 56 56 56 56 56 56 56 56 56 56 56 56 55 55 55 56 56 56 56 56 56 55 55 56 56 57 58 58 59 58 58 58 59 59 60 60 61 61 61 61 61 61 61 62 62
44 42 43 39 31 34 23 20 19 22 21 20 18 24 36 23 23 22 25 23 28 25 27 27 27 23 25 29 23 38 38 41 40 41 38 36 34 31 25 22 25 35 37 39 46 49 52 53 54 55 55 55 55 55 55 56 56 55 54 54 55 55 55 54 54 54 54 54 55 55 55 55 55 54 54 54 55 55 56 57 57 57 57 57 58 58 58 59 59 59 59 59 59 59 59 59 59
41 38 34 31 33 27 24 18 18 17 18 20 18 19 21 24 22 21 22 21 24 25 26 27 27 25 27 24 30 35 38 39 37 37 36 35 31 29 30 33 34 34 32 35 41 45 48 50 52 53 53 54 55 55 55 55 54 54 53 53 54 54 54 53 53 53 53 53 53 54 54 54 54 54 54 54 54 54 55 56 55 55 55 55 56 56 56 57 57 58 58 58 58 58 58 57 57
35 34 38 33 28 18 20 15 17 24 19 21 19 21 22 24 22 21 22 21 24 23 28 28 26 26 24 24 27 43 41 37 34 34 35 31 32 29 24 31 33 34 34 37 38 40 43 46 50 51 51 52 52 53 53 53 53 52 52 53 53 53 52 52 52 52 52 52 51 52 52 53 53 53 53 52 53 53 54 55 55 55 55 54 55 55 55 55 55 56 56 55 56 56 56 55 55
34 32 35 25 22 22 18 22 20 19 22 22 19 20 23 23 24 22 22 21 25 23 27 27 24 24 23 23 31 38 38 36 35 36 34 33 26 25 29 29 35 34 37 37 35 35 39 42 44 47 49 50 50 51 51 51 51 51 51 51 51 51 52 51 51 50 50 50 49 49 50 50 50 50 51 51 51 51 52 53 53 53 53 53 53 53 53 54 54 55 55 54 54 54 54 54 53
33 38 31 25 20 24 20 20 15 26 22 20 20 20 24 23 23 21 21 21 24 24 24 27 27 25 22 24 34 35 35 36 33 35 34 28 27 25 27 25 31 35 35 35 35 36 37 35 39 40 43 45 47 48 48 49 49 49 49 49 49 49 49 49 49 48 47 47 47 46 46 46 47 48 49 49 49 49 49 50 51 52 51 52 52 52 53 53 53 53 53 53 53 53 53 53 52
32 34 33 30 29 23 20 18 20 20 14 19 19 21 23 22 23 21 21 21 21 22 26 27 26 26 24 24 32 32 33 36 30 35 30 28 29 26 29 29 35 32 36 32 32 33 33 31 31 36 39 39 40 43 46 47 47 47 47 47 47 46 46 46 45 45 45 44 44 43 42 42 43 44 44 46 46 46 47 47 49 50 50 50 51 50 51 50 51 52 51 51 51 51 51 50 50
31 35 27 28 22 22 19 19 19 23 19 21 21 21 22 23 23 23 22 22 21 27 28 28 28 24 18 22 23 31 32 35 33 33 32 29 29 26 33 33 34 35 32 27 28 29 27 31 31 35 35 37 38 37 40 42 44 45 45 45 45 44 44 43 42 42 41 42 40 39 39 39 40 40 40 41 43 42 43 43 45 48 48 48 49 49 49 49 50 49 49 50 50 50 49 49 51
40 31 26 27 22 21 24 23 21 21 15 20 20 20 21 22 24 24 24 24 31 33 27 25 28 23 24 24 32 31 32 32 33 31 30 31 31 32 31 30 24 28 31 31 29 31 30 30 32 33 34 34 36 36 37 37 39 41 42 42 42 41 41 41 40 40 39 39 38 38 40 39 39 36 38 37 39 40 39 40 42 45 46 45 47 47 46 47 48 48 49 49 49 49 48 48 48
39 38 30 23 18 22 25 20 22 17 22 23 20 20 19 20 24 23 24 24 24 26 27 25 27 27 26 28 31 31 31 33 34 31 31 28 27 26 25 23 22 24 31 29 30 29 32 31 29 31 32 34 36 35 36 38 38 38 37 38 38 38 38 37 37 37 44 43 41 42 39 33 32 32 33 35 40 36 38 39 40 42 44 43 44 45 44 45 46 46 46 47 48 47 45 46 46
40 29 24 23 22 21 22 20 19 23 18 19 19 19 18 17 23 23 23 23 23 23 26 25 26 27 26 30 31 32 31 30 30 29 28 28 27 21 21 19 21 22 28 28 26 27 28 30 32 30 34 34 34 38 38 37 36 36 37 36 36 37 36 39 36 36 41 38 43 33 29 30 30 29 31 35 33 35 35 38 38 39 41 41 41 42 42 42 44 44 44 45 45 42 42 40 40
33 26 25 22 20 22 19 17 17 17 18 18 20 19 19 18 22 22 20 20 22 22 22 24 25 26 26 29 31 30 29 29 28 26 27 27 24 21 21 22 20 20 23 25 26 24 27 29 28 27 32 33 35 37 38 35 33 32 34 34 36 35 38 35 36 35 36 37 34 30 27 31 32 29 31 34 36 38 36 37 37 36 37 38 39 40 38 39 42 41 42 42 41 39 38 39 37
27 28 24 22 27 20 19 18 17 19 20 19 19 20 20 19 21 22 20 19 20 21 20 22 23 24 25 27 28 30 29 29 28 25 25 25 24 21 20 22 19 20 20 23 25 27 26 27 28 30 32 32 32 33 35 31 30 31 31 32 32 32 34 35 35 35 35 35 34 29 28 34 32 27 41 40 42 31 34 39 38 38 34 35 36 35 35 36 38 37 37 38 37 40 36 35 36
32 24 21 23 22 18 18 18 18 20 21 19 19 21 20 20 21 21 20 19 18 19 21 20 22 23 24 27 28 30 29 28 27 26 25 25 25 22 17 18 19 19 21 23 25 25 24 26 28 30 32 32 34 31 32 29 31 28 30 29 31 29 32 31 31 33 34 35 33 30 32 31 31 28 31 30 30 29 30 30 30 29 31 32 35 32 30 33 32 33 32 34 34 35 36 36 37
31 21 19 21 23 18 18 19 21 20 21 20 19 20 20 20 21 21 20 18 18 18 19 21 21 23 23 25 27 30 28 28 25 25 25 24 25 20 17 21 19 20 22 21 23 23 25 24 28 28 30 32 32 30 30 30 32 29 30 29 29 29 33 30 29 30 30 32 31 31 28 29 29 28 31 31 31 28 28 27 27 26 29 29 28 28 28 29 29 29 30 32 31 32 33 34 35
18 19 19 20 19 19 20 19 22 21 20 19 19 20 20 21 20 21 20 19 19 21 21 21 21 21 20 26 28 30 29 28 26 27 25 25 25 23 18 16 17 18 23 22 23 19 22 21 27 28 28 30 32 30 28 28 30 29 29 30 30 28 28 30 27 28 29 30 30 30 29 26 27 26 28 29 29 28 28 27 27 27 28 27 26 26 29 28 27 27 27 29 29 30 30 31 32
21 20 18 18 20 19 19 20 22 21 20 19 19 21 20 19 18 19 20 20 20 20 21 21 21 22 24 25 28 29 29 28 28 26 26 26 26 26 24 18 16 19 25 22 22 18 24 20 24 25 26 28 30 28 26 27 27 28 27 25 27 27 28 26 26 27 30 27 29 27 28 26 25 25 28 26 27 28 28 29 28 26 26 26 25 26 27 26 26 26 28 28 28 28 28 29 28
20 20 19 19 21 19 21 21 21 21 21 20 20 19 19 19 19 20 20 20 21 21 21 21 21 22 24 24 26 29 29 29 29 28 29 26 29 29 29 23 19 23 24 22 22 19 22 23 22 20 22 23 24 24 22 24 25 28 27 28 26 31 28 26 26 27 26 24 27 29 28 27 25 25 27 25 25 28 28 28 27 25 26 25 25 25 26 26 26 25 26 26 27 27 26 26 26
20 19 20 19 19 18 20 21 21 21 21 21 20 19 20 19 21 20 20 20 21 21 21 21 22 22 22 23 24 27 28 29 31 29 27 29 29 27 29 22 19 20 24 21 23 21 20 20 19 18 21 22 23 21 25 25 26 27 29 28 25 26 26 27 27 24 23 24 24 29 28 26 26 24 25 25 25 27 27 27 26 26 24 24 23 25 24 25 24 25 26 26 25 25 25 25 25
20 20 20 20 19 20 21 20 19 21 21 21 20 19 19 20 20 18 19 20 20 20 20 21 21 21 21 22 24 25 27 28 29 29 28 29 28 28 28 27 22 20 22 22 22 22 23 20 21 17 20 25 25 22 25 23 25 25 28 27 26 27 26 26 25 25 25 24 26 29 28 26 25 27 26 27 24 25 26 25 26 25 24 24 24 24 25 26 26 25 26 25 25 26 25 24 24
20 20 18 18 18 18 19 20 18 20 18 20 20 19 19 19 21 18 18 19 19 19 20 20 22 22 21 22 22 27 25 29 28 30 28 27 27 26 27 26 23 21 22 23 23 24 22 19 16 17 17 22 24 22 26 24 25 26 27 25 26 27 27 25 24 24 25 25 28 29 27 26 24 26 27 28 26 25 24 25 26 25 25 24 23 24 25 27 27 27 27 27 27 27 24 24 25
20 19 17 16 16 17 18 18 19 19 17 19 19 17 17 18 18 20 20 20 19 19 19 20 21 21 23 23 22 24 25 25 28 28 29 26 27 26 26 27 24 22 22 24 23 26 22 19 16 15 18 25 21 21 23 24 25 24 25 26 26 30 24 25 24 25 24 26 28 28 27 26 23 24 24 26 26 24 24 25 25 25 24 24 24 26 28 27 25 24 25 26 25 25 24 25 27
19 19 18 16 15 14 15 18 19 19 17 19 18 14 10 16 18 18 19 20 19 19 19 19 21 21 20 22 22 23 25 26 26 29 28 27 27 27 27 27 26 23 22 23 23 23 22 24 24 22 23 23 24 19 21 23 24 25 25 24 25 26 22 22 23 24 22 22 26 27 28 26 24 23 24 26 25 23 24 24 24 23 23 24 24 25 23 23 22 24 25 23 25 24 23 24 22
18 17 19 19 17 14 19 19 18 18 19 19 18 17 10 8 13 18 21 20 19 18 18 18 20 21 21 23 23 24 24 26 25 26 29 29 27 27 27 26 25 24 22 23 24 24 22 24 25 20 24 24 23 21 24 24 24 24 23 23 23 26 23 22 22 22 23 23 21 25 26 26 24 25 25 23 22 22 22 21 22 21 22 24 22 23 23 24 23 23 22 23 23 22 23 23 23
18 18 18 22 19 16 19 20 18 16 18 18 18 20 14 11 10 17 20 19 18 18 18 18 19 20 21 21 22 23 24 25 26 25 26 26 27 26 27 25 24 23 21 23 24 24 21 23 25 24 25 24 24 23 25 25 23 24 23 28 24 27 22 23 21 23 22 20 20 24 26 26 25 25 24 24 23 22 20 20 19 20 23 21 22 22 23 23 21 24 23 24 22 22 22 22 22
20 20 24 20 17 20 16 19 18 18 18 18 17 12 8 7 12 20 20 19 19 18 18 19 18 18 20 21 22 23 24 24 27 25 25 26 27 25 24 22 24 22 22 22 24 24 22 25 25 27 24 26 22 22 26 26 23 24 21 22 24 26 24 23 21 22 22 22 20 21 24 24 24 25 25 24 23 22 21 21 20 23 23 22 22 22 22 23 21 25 22 23 24 22 22 22 21
21 23 20 24 17 13 10 18 19 23 18 17 18 15 14 12 11 14 20 20 19 18 17 17 17 17 18 22 21 22 23 24 24 25 25 25 26 24 22 27 24 22 22 21 25 23 22 27 27 27 25 25 23 25 25 25 23 24 23 23 25 23 26 23 22 22 23 21 22 21 25 24 23 24 24 24 22 23 22 22 22 22 23 22 21 21 21 22 23 22 22 22 22 22 20 20 19
14 11 14 16 14 13 14 13 16 20 19 16 16 17 15 14 14 14 14 19 18 17 17 16 16 16 18 19 22 22 23 24 23 25 27 25 26 25 24 24 24 23 20 20 23 22 23 26 25 27 25 25 24 25 26 26 24 23 23 26 24 24 25 24 22 21 23 21 21 24 25 23 21 24 25 24 23 21 20 21 21 22 22 21 20 20 21 21 22 23 22 21 22 21 20 21 20
12 13 16 15 15 13 11 11 18 17 17 17 16 14 14 15 16 16 16 16 15 17 17 18 17 17 17 18 22 23 25 22 25 26 29 27 27 26 24 23 24 23 19 20 23 23 22 26 24 26 25 22 23 24 25 24 22 22 23 25 25 24 23 23 24 21 23 21 23 23 24 24 22 21 23 23 23 21 22 21 21 22 21 20 20 21 20 19 20 21 21 21 21 21 22 21 20
15 21 23 15 16 16 16 16 17 17 16 15 15 15 14 15 15 16 16 16 15 14 13 19 20 19 21 21 21 24 25 23 31 30 30 29 29 26 25 24 24 23 19 19 20 23 21 25 24 25 25 22 21 23 23 23 22 22 23 22 21 22 23 23 23 23 22 21 23 24 24 23 24 24 23 23 22 23 20 20 21 21 20 20 19 19 20 20 20 20 21 22 22 21 20 20 20
16 17 20 17 23 18 18 18 17 17 17 16 16 16 18 17 17 16 16 14 14 13 14 15 13 16 20 22 24 25 25 31 32 30 29 30 27 29 26 24 26 22 19 18 19 22 21 24 24 25 24 21 21 21 23 21 22 20 21 22 20 20 21 21 21 21 22 25 24 23 23 23 24 24 22 23 22 21 20 19 19 20 19 18 18 19 19 21 21 22 23 21 20 19 18 19 21
20 20 20 21 20 23 21 19 18 18 19 17 17 16 16 16 16 16 16 16 16 15 16 15 15 18 20 21 23 25 27 29 29 28 30 28 30 28 26 25 25 23 21 19 19 22 21 23 24 25 23 22 21 21 21 21 22 23 22 22 21 20 22 21 21 22 23 23 24 24 23 23 23 23 23 23 22 22 21 19 18 17 18 18 17 18 19 20 20 21 21 20 19 19 18 21 21
21 22 24 20 24 25 19 23 20 19 17 18 19 18 19 19 18 18 19 17 17 20 20 22 24 23 24 23 24 26 27 28 28 27 26 26 28 27 26 25 25 25 22 19 18 20 20 22 23 23 23 22 21 20 23 23 23 24 24 23 23 22 22 23 23 23 23 24 23 24 24 23 23 22 22 22 22 21 21 19 18 18 17 18 18 18 18 19 20 21 21 20 20 18 17 17 19
26 26 24 22 24 23 24 20 20 19 19 23 21 23 21 22 20 18 18 20 19 19 19 21 25 31 31 35 34 32 26 28 28 27 27 25 26 27 26 26 25 25 24 21 20 20 19 21 23 23 23 22 22 22 22 23 23 25 24 25 25 25 24 23 23 21 22 22 22 22 22 23 23 22 22 22 20 20 20 19 19 17 17 18 18 17 17 17 19 19 19 20 20 18 18 17 18
20 28 26 24 23 22 23 29 24 21 20 23 24 15 14 14 17 20 21 18 19 20 21 21 21 22 26 26 29 32 35 29 28 27 27 26 25 27 27 27 26 26 24 23 21 20 19 20 22 23 23 23 22 22 23 23 23 23 22 22 21 20 18 18 17 17 20 21 20 21 22 22 23 22 21 21 20 19 19 19 20 18 18 18 19 17 16 17 18 19 20 20 19 20 18 18 17
22 22 31 28 25 26 28 29 26 20 19 22 22 16 16 16 13 13 19 16 16 20 25 21 19 21 24 30 31 31 30 30 30 29 27 26 25 26 26 26 26 25 24 24 22 20 20 22 23 23 22 23 25 23 24 24 23 22 22 21 19 18 17 19 18 18 19 21 22 21 21 21 21 21 21 20 19 18 18 19 19 18 18 18 18 17 16 17 17 18 19 19 19 19 19 17 17
20 32 35 29 28 28 29 28 27 22 25 27 24 21 17 18 17 17 13 10 9 13 14 22 22 17 5 11 31 30 30 30 32 30 28 26 25 25 24 25 25 24 24 25 24 22 21 21 23 23 22 23 24 25 24 23 22 21 22 22 20 19 18 18 19 18 20 18 18 19 19 18 20 21 20 19 18 17 17 18 18 18 18 18 18 17 16 16 17 18 19 20 19 18 19 18 17
27 31 31 30 28 28 30 27 22 23 22 20 21 26 17 18 20 18 16 12 9 8 9 11 13 18 13 13 31 31 29 30 32 32 28 27 26 25 25 25 25 24 25 26 25 23 22 22 23 22 22 23 23 25 23 23 22 21 22 22 22 22 23 22 21 20 19 19 19 19 19 17 17 19 18 18 17 17 16 17 17 17 17 17 16 18 17 17 18 18 18 18 18 18 17 18 17
33 31 30 29 29 27 25 22 22 22 19 21 20 23 18 15 19 17 16 13 11 11 10 10 13 16 22 22 29 30 29 30 31 31 29 28 27 26 26 25 24 24 25 27 26 25 23 23 23 22 22 23 23 25 23 24 22 22 22 23 24 22 21 21 20 20 20 20 19 20 19 17 15 15 16 17 18 17 17 16 17 17 17 17 17 17 18 18 19 20 20 19 19 19 18 17 17
30 30 28 28 26 26 23 24 20 22 19 23 23 24 19 15 20 17 19 20 13 12 12 13 17 23 23 27 32 34 29 31 32 31 30 29 28 26 26 24 24 24 26 26 28 26 25 24 22 22 21 22 23 25 23 24 22 21 22 24 24 24 22 22 20 20 19 20 18 18 17 17 15 13 13 12 16 16 16 16 16 17 16 16 16 16 16 17 16 17 17 18 18 18 17 17 18
33 26 24 25 26 22 21 21 22 18 17 20 22 24 23 16 15 20 11 13 13 9 8 9 11 14 25 30 29 29 28 30 33 30 30 30 28 27 26 25 24 23 24 25 28 27 26 24 23 22 22 21 24 24 24 24 22 22 23 23 23 24 23 23 20 20 20 19 19 16 16 14 12 14 12 12 13 14 15 15 16 17 16 16 15 15 15 15 15 16 16 16 16 16 17 17 17
30 23 22 20 17 19 17 19 16 17 16 18 19 26 23 15 8 7 9 10 11 5 5 6 10 11 21 31 31 30 31 31 32 31 31 30 29 27 26 25 24 23 26 25 26 27 25 24 23 23 22 21 22 23 24 23 23 22 22 22 23 23 24 23 23 21 20 19 18 17 14 11 11 14 11 11 13 14 14 15 15 15 14 14 15 16 16 16 16 16 16 17 17 17 16 16 16
23 21 22 19 17 18 18 18 19 17 25 17 14 25 15 14 12 14 10 9 7 8 11 18 14 14 19 33 35 31 34 32 33 33 33 32 30 29 27 26 24 24 25 25 25 26 26 25 24 23 21 21 21 24 23 22 23 23 22 22 22 22 22 22 21 20 19 17 17 15 14 12 12 11 11 12 12 14 15 15 15 15 15 15 16 16 17 17 17 16 16 16 16 16 16 16 16
22 26 22 21 20 19 15 13 13 16 14 14 23 14 17 10 7 13 11 10 11 11 16 23 26 24 36 33 37 34 34 32 33 34 34 32 31 30 29 27 26 25 25 26 25 26 25 25 24 22 21 21 21 23 23 23 23 23 22 22 22 21 21 21 20 19 18 16 14 13 12 12 10 10 10 11 12 14 14 15 15 15 16 16 16 16 18 16 17 16 16 16 15 15 15 15 15
25 26 26 23 21 22 16 15 18 18 15 16 20 13 15 8 16 16 13 10 10 14 19 22 23 26 36 30 30 32 32 32 34 33 34 32 32 30 30 28 27 26 25 26 25 26 27 25 24 22 21 20 21 23 23 22 23 22 22 22 21 20 20 19 19 18 15 16 14 13 12 12 11 10 10 11 13 14 15 15 15 16 16 15 15 15 15 15 15 15 14 14 14 16 15 15 15
23 25 22 23 28 24 22 23 23 22 16 14 19 14 17 13 12 17 17 10 11 14 16 18 17 20 30 32 32 31 31 31 34 35 33 32 32 31 31 29 28 26 26 26 25 25 26 26 25 22 20 20 22 23 23 22 22 22 22 21 21 20 19 18 16 15 14 14 14 13 11 11 11 10 13 13 13 13 14 14 14 15 15 15 15 14 14 14 14 14 13 13 13 13 14 14 14
25 21 22 30 28 28 23 17 17 15 13 15 18 20 12 15 14 15 13 12 9 17 17 15 18 22 23 31 36 35 33 33 32 33 33 32 32 31 31 30 28 27 26 25 25 26 26 26 25 22 20 20 22 24 23 23 22 22 22 21 20 19 17 16 15 13 14 13 13 11 11 12 11 12 12 16 14 14 14 16 14 14 14 13 13 13 13 13 14 13 12 12 12 13 12 12 12
25 22 31 21 18 17 17 18 14 13 13 12 12 11 13 15 14 15 12 13 11 13 16 16 17 20 24 29 30 33 34 34 33 31 32 32 31 31 30 30 29 27 27 26 26 26 27 26 25 22 20 21 24 24 22 23 22 24 23 21 19 18 16 15 14 13 13 12 11 10 10 11 12 12 11 13 13 13 13 13 13 12 11 11 11 12 12 12 12 10 10 11 10 10 10 9 9
27 26 23 27 17 20 17 17 18 12 10 12 14 17 11 24 11 15 14 13 15 13 14 14 15 17 20 26 29 31 34 35 35 34 34 34 32 30 29 29 29 27 27 27 26 27 25 25 24 22 21 22 24 23 23 22 23 23 22 19 18 16 15 14 13 12 9 9 9 10 10 11 12 11 12 12 12 11 11 10 10 9 9 9 9 9 9 10 9 8 8 9 8 8 8 7 7
21 20 17 20 23 22 19 18 17 13 12 9 9 10 13 16 5 8 14 14 15 14 16 21 20 18 20 24 30 34 35 37 35 35 34 33 32 30 30 29 29 28 28 27 27 26 26 25 25 23 21 23 24 24 23 22 22 21 20 17 16 14 12 11 11 10 8 7 8 10 9 11 11 11 11 11 10 10 9 9 8 8 8 8 8 7 7 7 7 6 6 6 6 6 6 5 6
22 21 19 18 19 17 16 16 22 21 15 13 10 12 14 15 8 7 9 11 17 17 19 25 25 21 22 27 27 32 39 35 35 34 34 34 32 31 28 28 29 27 25 25 26 26 25 25 25 23 22 24 23 23 22 21 21 20 18 15 14 12 10 9 9 8 7 7 8 8 9 9 9 10 9 8 8 7 7 7 6 6 6 6 6 6 5 5 4 4 3 3 3 3 3 3 3